TimeEST,TemperatureF,Dew PointF,Humidity,Sea Level PressureIn,VisibilityMPH,Wind Direction,Wind SpeedMPH,Gust SpeedMPH,PrecipitationIn,Events,Conditions,WindDirDegrees,DateUTC
12:35 AM,64.9,62.1,90,29.81,10.0,North,4.6,-,N/A,,Mostly Cloudy,350,2014-03-07 05:35:00
12:53 AM,64.0,61.0,90,29.80,10.0,Variable,6.9,-,N/A,,Mostly Cloudy,0,2014-03-07 05:53:00
1:01 AM,64.0,60.1,87,29.80,10.0,Calm,Calm,-,N/A,,Mostly Cloudy,0,2014-03-07 06:01:00
1:43 AM,63.0,59.0,87,29.79,10.0,NE,8.1,-,N/A,,Overcast,40,2014-03-07 06:43:00
1:53 AM,62.1,59.0,90,29.79,10.0,NNE,6.9,-,N/A,,Overcast,30,2014-03-07 06:53:00
2:29 AM,61.0,57.9,90,29.79,10.0,NNE,5.8,-,N/A,,Overcast,30,2014-03-07 07:29:00
2:53 AM,61.0,57.9,90,29.78,10.0,NNE,4.6,-,N/A,,Overcast,20,2014-03-07 07:53:00
3:01 AM,61.0,57.9,90,29.79,10.0,NNE,4.6,-,N/A,,Overcast,20,2014-03-07 08:01:00
3:53 AM,61.0,57.9,90,29.79,7.0,Calm,Calm,-,N/A,,Overcast,0,2014-03-07 08:53:00
4:53 AM,61.0,57.9,90,29.80,7.0,North,4.6,-,N/A,,Overcast,360,2014-03-07 09:53:00
5:03 AM,61.0,57.9,90,29.80,2.0,NW,5.8,-,N/A,,Overcast,310,2014-03-07 10:03:00
5:53 AM,61.0,57.9,90,29.82,2.0,WSW,4.6,-,N/A,,Overcast,250,2014-03-07 10:53:00
6:07 AM,61.0,57.9,90,29.82,10.0,West,5.8,-,N/A,,Mostly Cloudy,260,2014-03-07 11:07:00
6:37 AM,61.0,57.9,90,29.82,10.0,West,5.8,-,N/A,,Mostly Cloudy,280,2014-03-07 11:37:00
6:53 AM,61.0,57.9,90,29.83,10.0,West,6.9,-,N/A,,Mostly Cloudy,260,2014-03-07 11:53:00
7:53 AM,61.0,55.9,83,29.85,10.0,West,8.1,-,N/A,,Scattered Clouds,270,2014-03-07 12:53:00
8:25 AM,63.0,57.0,81,29.87,10.0,WNW,12.7,-,N/A,,Mostly Cloudy,290,2014-03-07 13:25:00
8:44 AM,63.0,55.9,78,29.88,10.0,West,10.4,-,N/A,,Mostly Cloudy,280,2014-03-07 13:44:00
8:53 AM,64.0,55.9,75,29.87,10.0,West,12.7,-,N/A,,Mostly Cloudy,280,2014-03-07 13:53:00
9:53 AM,64.9,53.1,65,29.90,10.0,WNW,16.1,-,N/A,,Mostly Cloudy,300,2014-03-07 14:53:00
10:53 AM,63.0,50.0,63,29.91,10.0,West,18.4,-,N/A,,Mostly Cloudy,280,2014-03-07 15:53:00
11:13 AM,63.0,50.0,63,29.92,10.0,West,17.3,23.0,N/A,,Mostly Cloudy,270,2014-03-07 16:13:00
11:53 AM,61.0,48.9,64,29.91,10.0,West,17.3,-,N/A,,Mostly Cloudy,280,2014-03-07 16:53:00
12:53 PM,59.0,46.9,64,29.92,10.0,WNW,15.0,-,N/A,,Overcast,290,2014-03-07 17:53:00
1:53 PM,59.0,46.9,64,29.91,10.0,West,16.1,25.3,N/A,,Overcast,270,2014-03-07 18:53:00
2:53 PM,59.0,46.9,64,29.91,10.0,West,18.4,26.5,N/A,,Mostly Cloudy,280,2014-03-07 19:53:00
3:53 PM,57.0,46.9,69,29.90,10.0,West,16.1,-,N/A,,Mostly Cloudy,280,2014-03-07 20:53:00
4:53 PM,57.0,46.0,67,29.92,10.0,WNW,17.3,27.6,N/A,,Mostly Cloudy,300,2014-03-07 21:53:00
5:53 PM,55.0,46.0,72,29.94,10.0,WNW,13.8,-,N/A,,Overcast,300,2014-03-07 22:53:00
6:53 PM,54.0,46.0,75,29.97,10.0,WNW,13.8,-,N/A,,Overcast,300,2014-03-07 23:53:00
7:53 PM,52.0,44.1,74,30.01,10.0,WNW,12.7,-,N/A,,Overcast,300,2014-03-08 00:53:00
8:53 PM,53.1,44.1,71,30.04,10.0,NW,11.5,-,N/A,,Overcast,320,2014-03-08 01:53:00
9:53 PM,50.0,41.0,71,30.07,10.0,NNW,18.4,-,N/A,,Overcast,330,2014-03-08 02:53:00
10:53 PM,48.9,39.0,69,30.08,10.0,NNW,11.5,-,N/A,,Overcast,330,2014-03-08 03:53:00
11:17 PM,48.0,39.0,71,30.09,10.0,NW,6.9,-,N/A,,Scattered Clouds,310,2014-03-08 04:17:00
11:53 PM,48.0,39.0,71,30.08,10.0,NW,8.1,-,N/A,,Partly Cloudy,320,2014-03-08 04:53:00